Mobridge, SD

6:56 AM CDT on October 20, 2017 (GMT -0500)
Mobridge Municipal

Weather History for KMBG - August, 2013

Change the Weather History Date:

Tuesday, August 27, 2013

  Actual Average Record
Temperature  
Mean Temperature 81 °F 69 °F  
Max Temperature 98 °F 82 °F 106 °F (2010)
Min Temperature 63 °F 56 °F 41 °F (1935)
Degree Days  
Heating Degree Days 0 1  
Month to date heating degree days 2 10  
Since 1 June heating degree days 81 97  
Since 1 July heating degree days 13 22  
Cooling Degree Days 16 5  
Month to date cooling degree days 191 199  
Year to date cooling degree days 532 563  
Since 1 June cooling degree days 517 547  
Growing Degree Days 31 (Base 50)    
Moisture  
Dew Point 64 °F    
Average Humidity 60    
Maximum Humidity 93    
Minimum Humidity 26    
Precipitation  
Precipitation 0.01 in 0.06 in 0.92 in (1929)
Month to date precipitation 1.60 1.79  
Year to date precipitation 13.16 13.67  
Sea Level Pressure  
Sea Level Pressure 29.84 in    
Wind  
Wind Speed 7 mph (ENE)    
Max Wind Speed 24 mph    
Max Gust Speed 33 mph    
Visibility 10 miles    
Events      
T = Trace of Precipitation, MM = Missing Value Source: NWS Daily Summary

Daily Weather History Graph

Daily Weather History Graph

Search for Another Location

Airport or City:

Trip Planner

Search our weather history database for the weather conditions in past years. The results will help you decide how hot, cold, wet, or windy it might be!

Date:

Astronomy

Aug. 27, 2013 Rise Set
Actual Time 6:57 AM CDT 8:28 PM CDT
Civil Twilight 6:26 AM CDT 8:58 PM CDT
Nautical Twilight 5:48 AM CDT 9:36 PM CDT
Astronomical Twilight 5:07 AM CDT 10:16 PM CDT
Moon No Moon Rise 2:19 PM CDT (8/27)
Length of Visible Light 14h 32m
Length of Day
13h 30m
Waning Gibbous, 57% of the Moon is Illuminated
Aug 27
Waning Gibbous
Aug 28
Last Quarter
Sep 5
New
Sep 12
First Quarter
Sep 19
Full

Hourly Weather History & Observations

Time (CDT) Temp. Heat Index Dew Point Humidity Pressure Visibility Wind Dir Wind Speed Gust Speed Precip Events Conditions
12:52 AM 75.9 °F - 64.0 °F 67% 29.79 in 10.0 mi ENE 11.5 mph 19.6 mph N/A   Clear
1:52 AM 73.0 °F - 63.0 °F 71% 29.80 in 10.0 mi Calm Calm - N/A   Clear
2:52 AM 71.1 °F - 63.0 °F 75% 29.80 in 10.0 mi Calm Calm - N/A   Clear
3:52 AM 66.0 °F - 62.1 °F 87% 29.81 in 10.0 mi Calm Calm - N/A   Clear
4:52 AM 64.9 °F - 62.1 °F 90% 29.82 in 10.0 mi North 4.6 mph - N/A   Clear
5:52 AM 66.0 °F - 63.0 °F 90% 29.83 in 10.0 mi North 4.6 mph - N/A   Clear
6:52 AM 64.9 °F - 63.0 °F 93% 29.84 in 10.0 mi North 5.8 mph - N/A   Clear
7:52 AM 69.1 °F - 66.0 °F 90% 29.86 in 10.0 mi NNE 3.5 mph - N/A   Clear
8:52 AM 75.9 °F - 66.9 °F 74% 29.86 in 10.0 mi Calm Calm - N/A   Clear
9:52 AM 79.0 °F - 69.1 °F 72% 29.87 in 10.0 mi Calm Calm - N/A   Clear
10:52 AM 84.0 °F 89.0 °F 71.1 °F 65% 29.87 in 10.0 mi Variable 3.5 mph - N/A   Clear
11:52 AM 89.1 °F 92.1 °F 66.9 °F 48% 29.86 in 10.0 mi ESE 9.2 mph - N/A   Clear
1:52 PM 93.9 °F 96.1 °F 64.9 °F 38% 29.83 in 10.0 mi East 6.9 mph - N/A   Clear
2:52 PM 95.0 °F 96.0 °F 63.0 °F 34% 29.83 in 10.0 mi East 4.6 mph - N/A   Clear
3:52 PM 98.1 °F 99.1 °F 62.1 °F 30% 29.81 in 10.0 mi ESE 9.2 mph - N/A   Clear
4:52 PM 97.0 °F 96.5 °F 59.0 °F 28% 29.81 in 10.0 mi SSE 4.6 mph - N/A   Clear
5:52 PM 98.1 °F 97.2 °F 57.9 °F 26% 29.81 in 10.0 mi East 8.1 mph - N/A   Clear
6:52 PM 95.0 °F 94.0 °F 57.9 °F 29% 29.81 in 10.0 mi East 9.2 mph - N/A   Clear
7:52 PM 88.0 °F 87.1 °F 59.0 °F 37% 29.83 in 10.0 mi East 10.4 mph - N/A   Clear
8:30 PM 80.6 °F 82.7 °F 66.2 °F 61% 29.93 in 10.0 mi NNW 23.0 mph 28.8 mph N/A   Scattered Clouds
8:52 PM 75.9 °F - 69.1 °F 79% 29.89 in 10.0 mi NNE 18.4 mph 29.9 mph N/A   Clear
9:52 PM 75.9 °F - 68.0 °F 76% 29.87 in 10.0 mi NE 16.1 mph 24.2 mph N/A   Partly Cloudy
10:52 PM 75.0 °F - 68.0 °F 79% 29.88 in 10.0 mi NE 17.3 mph 23.0 mph N/A   Clear
11:52 PM 75.9 °F - 68.0 °F 76% 29.89 in 10.0 mi ENE 12.7 mph - N/A   Partly Cloudy